Date,TemperatureHighF,TemperatureAvgF,TemperatureLowF,DewpointHighF,DewpointAvgF,DewpointLowF,HumidityHigh,HumidityAvg,HumidityLow,PressureMaxIn,PressureMinIn,WindSpeedMaxMPH,WindSpeedAvgMPH,GustSpeedMaxMPH,PrecipitationSumIn
2013-1-1,35.0,20.9,27.6,24.9,-23.3,-99.9,72,37,39,29.81,29.58,14,-322,31,0.00
2013-1-2,25.3,2.5,22.1,6.4,-89.0,-99.9,47,5,41,29.99,29.78,15,-864,21,0.00
2013-1-3,21.9,2.5,18.6,-1.6,-87.9,-99.9,39,4,30,30.02,29.87,9,-838,17,0.00
2013-1-4,-200.0,0.0,200.0,-99.9,-99.9,-99.9,0,0,100,29.87,29.66,0,-953,0,0.00
2013-1-5,37.3,5.5,33.2,16.5,-82.5,-99.9,50,6,36,30.16,29.68,10,-811,22,0.00
2013-1-6,40.9,16.2,31.0,26.4,-43.2,-99.9,75,30,55,30.12,29.82,10,-520,14,0.01
2013-1-7,34.9,29.5,19.9,26.7,23.4,16.4,89,78,67,30.31,29.84,5,1,10,0.00
2013-1-8,44.6,33.6,25.3,25.2,23.7,21.0,90,69,43,30.26,30.14,10,2,18,0.00
2013-1-9,43.3,33.6,21.4,32.8,25.6,18.1,88,73,55,30.31,29.86,10,2,21,0.00
2013-1-10,44.5,39.7,29.7,28.1,24.2,21.4,73,54,44,30.43,29.88,16,7,28,0.00
2013-1-11,38.8,32.5,23.6,37.0,26.5,19.8,95,79,63,30.42,30.14,2,0,6,0.08
2013-1-12,42.6,40.0,37.6,41.8,39.2,36.8,98,97,95,30.14,30.03,2,0,7,0.03
2013-1-13,50.4,44.6,39.8,49.2,44.1,39.3,99,98,93,30.05,29.87,3,1,10,0.00
2013-1-14,60.2,49.9,39.1,49.5,41.7,26.0,96,75,43,30.13,29.71,11,4,19,0.00
2013-1-15,40.9,35.7,29.7,27.2,24.3,21.3,78,64,52,30.22,30.13,3,0,5,0.00
2013-1-16,31.6,30.5,28.5,30.3,27.4,22.0,96,89,69,30.15,29.71,0,0,2,0.01
2013-1-17,40.5,31.5,26.4,32.6,23.5,3.4,96,74,35,30.01,29.71,8,2,17,0.31
2013-1-18,26.3,18.1,12.4,9.0,-4.5,-14.4,54,37,26,30.34,29.95,13,4,20,0.00
2013-1-19,44.9,35.1,18.8,28.7,18.4,3.6,68,51,38,30.27,29.77,14,3,22,0.09
2013-1-20,52.5,39.7,27.2,30.7,21.8,5.0,71,51,22,29.78,29.39,20,8,33,0.01
2013-1-21,27.3,23.4,19.2,18.3,4.4,-6.5,87,46,27,29.96,29.71,16,5,28,0.00
2013-1-22,24.8,19.1,11.1,18.1,5.7,-8.9,86,58,25,29.96,29.65,14,4,21,0.00
2013-1-23,11.2,6.8,2.0,-0.9,-11.4,-18.1,71,43,28,30.03,29.94,12,4,23,0.00
2013-1-24,14.9,6.8,-1.6,-9.4,-15.1,-18.5,46,36,25,30.08,29.92,14,9,29,0.00
2013-1-25,19.7,13.3,6.1,-2.8,-8.6,-10.3,50,37,26,30.16,29.96,12,7,23,0.00
2013-1-26,23.9,16.0,9.5,9.6,0.2,-10.6,83,53,26,30.09,29.90,12,4,27,0.00
2013-1-27,28.1,18.9,12.6,0.9,-3.8,-11.4,56,38,21,30.35,30.08,12,7,24,0.00
2013-1-28,28.2,21.0,12.6,21.7,6.0,-7.0,90,57,22,30.34,29.94,4,1,7,0.00
2013-1-29,35.5,28.6,22.9,30.3,24.6,20.1,93,85,72,30.10,29.93,2,0,6,0.11
2013-1-30,59.6,44.7,32.1,57.2,43.6,30.3,100,96,86,30.06,29.35,5,1,18,0.23
2013-1-31,62.6,47.4,30.9,58.2,34.6,7.7,97,64,35,29.42,28.80,22,12,43,0.19
2013-2-1,32.1,27.1,18.3,10.7,6.5,1.6,58,42,28,29.95,29.42,16,8,29,0.00
2013-2-2,29.4,22.3,13.1,10.6,4.9,0.4,67,48,30,30.12,29.94,6,2,13,0.00
2013-2-3,27.5,24.3,18.3,19.4,16.2,10.2,90,72,50,29.94,29.60,5,1,13,0.00
2013-2-4,29.5,24.3,20.0,15.9,6.4,-2.2,75,49,27,29.78,29.59,15,8,29,0.00
2013-2-5,29.3,20.9,12.3,15.2,5.6,-0.1,74,52,35,29.93,29.78,7,1,12,0.00
2013-2-6,37.5,28.0,21.4,24.1,16.4,-0.5,89,64,34,30.20,29.82,12,3,19,0.01
2013-2-7,27.3,20.4,14.3,6.0,-3.8,-8.8,54,35,21,30.43,30.20,8,2,15,0.00
2013-2-8,28.4,19.1,15.9,27.0,14.5,6.0,95,83,47,30.41,29.60,8,3,25,0.00
2013-2-9,22.4,17.6,13.1,18.4,11.8,2.5,90,79,58,30.06,29.51,14,8,30,0.00
2013-2-10,38.2,21.8,9.0,6.8,1.3,-3.7,61,43,22,30.28,30.05,8,2,15,0.11
2013-2-11,38.6,26.0,12.3,37.6,20.7,0.8,98,81,54,30.25,29.49,4,0,11,0.27
2013-2-12,44.3,38.3,33.7,34.4,28.9,25.7,98,70,48,29.74,29.46,14,7,28,0.04
2013-2-13,42.1,33.9,26.6,26.6,22.6,20.4,83,64,42,29.75,29.62,7,2,16,0.00
2013-2-14,42.5,34.1,28.4,26.0,21.8,18.2,87,62,40,29.88,29.59,6,1,14,0.00
2013-2-15,52.3,37.3,24.8,34.1,28.2,20.9,89,72,43,29.88,29.78,5,1,19,0.00
2013-2-16,39.8,34.3,29.0,32.2,26.0,16.3,94,73,46,29.85,29.63,6,1,15,0.02
2013-2-17,30.9,21.5,15.9,17.9,9.1,-0.3,89,61,37,29.63,29.22,19,11,40,0.00
2013-2-18,30.9,21.8,13.6,3.0,-2.4,-7.3,54,36,19,30.01,29.50,18,12,38,0.00
2013-2-19,41.3,32.6,21.1,40.1,17.6,-5.4,97,58,28,30.03,29.46,6,2,14,0.32
2013-2-20,39.9,33.0,26.7,39.3,21.1,12.7,98,63,44,29.64,29.40,15,8,32,0.00
2013-2-21,29.1,25.5,22.5,13.9,11.2,6.7,66,54,42,30.07,29.61,14,7,27,0.00
2013-2-22,41.6,29.6,18.6,23.7,18.8,13.7,83,65,41,30.29,30.07,5,1,17,0.00
2013-2-23,38.0,33.9,29.3,33.8,28.5,23.4,93,81,68,30.24,29.86,3,1,12,0.05
2013-2-24,36.6,33.4,29.4,35.6,32.3,28.4,96,96,93,29.86,29.63,3,1,11,0.26
2013-2-25,40.6,32.0,26.6,32.0,28.8,25.2,96,88,66,30.14,29.80,2,0,6,0.38
2013-2-26,40.3,34.1,27.6,36.6,29.5,25.0,97,84,55,30.25,30.10,3,0,7,0.01
2013-2-27,40.9,37.8,34.0,38.0,35.0,29.0,97,90,71,30.11,29.47,10,5,22,0.89
2013-2-28,48.0,38.4,33.1,37.2,33.7,32.0,97,84,61,29.52,29.43,6,2,15,0.02
2013-3-1,40.6,35.8,32.1,32.0,29.0,27.4,91,77,61,29.58,29.44,5,1,12,0.00
2013-3-2,45.2,36.6,30.9,30.3,27.3,25.1,87,70,49,29.57,29.50,7,2,15,0.00
2013-3-3,40.1,34.3,30.3,33.6,29.2,24.2,94,82,65,29.54,29.46,6,3,18,0.03
2013-3-4,37.6,32.9,29.5,25.6,22.7,20.2,74,66,56,29.62,29.46,13,7,34,0.00
2013-3-5,43.8,36.1,29.4,33.4,27.5,20.6,85,71,56,29.98,29.63,7,2,17,0.01
2013-3-6,38.5,35.8,32.2,35.1,32.0,27.2,95,86,64,30.08,29.98,7,4,19,0.09
2013-3-7,33.7,32.0,30.3,31.1,28.1,24.9,95,86,72,30.05,29.93,6,3,19,0.13
2013-3-8,44.1,35.6,28.7,34.4,25.8,18.3,97,72,38,30.07,29.88,7,3,26,0.24
2013-3-9,42.3,35.8,26.1,29.4,23.9,18.8,92,63,43,30.27,30.07,5,2,13,0.07
2013-3-10,40.8,32.4,23.3,31.8,27.4,21.6,94,83,64,30.33,30.22,4,1,9,0.00
2013-3-11,51.4,40.8,32.7,38.4,33.5,29.7,91,77,44,30.24,30.06,3,1,12,0.00
2013-3-12,49.5,44.9,40.3,48.1,43.0,38.2,98,93,86,30.07,29.63,4,1,15,0.24
2013-3-13,50.8,43.4,34.0,50.5,33.0,21.0,99,69,39,29.68,29.59,9,4,18,0.00
2013-3-14,35.6,31.0,21.3,22.6,16.3,2.6,73,55,42,29.71,29.57,13,6,26,0.00
2013-3-15,39.9,27.6,17.8,27.4,9.6,1.8,82,49,24,29.74,29.52,13,6,30,0.00
2013-3-16,36.8,31.2,26.0,28.5,14.3,5.0,88,51,28,29.79,29.53,8,3,16,0.00
2013-3-17,35.6,27.4,19.7,14.0,7.1,-3.1,72,44,24,30.23,29.78,14,4,22,0.00
2013-3-18,36.5,25.9,12.6,23.4,9.0,-2.3,68,50,27,30.36,30.17,5,1,12,0.00
2013-3-19,32.8,31.0,25.0,32.3,29.7,23.0,98,95,67,30.17,29.55,9,3,16,0.14
2013-3-20,36.5,29.3,23.3,25.5,22.3,19.1,95,76,55,29.69,29.58,13,3,28,0.09
2013-3-21,38.3,30.3,23.3,26.5,20.4,14.2,90,68,39,29.69,29.51,5,1,12,0.24
2013-3-22,40.5,32.8,27.8,26.2,19.1,13.1,90,59,34,29.60,29.49,11,3,18,0.02
2013-3-23,41.8,34.5,26.3,22.4,18.9,15.2,71,54,35,29.65,29.50,17,8,27,0.00
2013-3-24,47.0,37.2,29.3,30.4,23.9,20.3,89,60,36,29.70,29.63,9,4,20,0.00
2013-3-25,41.2,34.8,27.0,32.9,28.5,22.7,91,78,70,29.68,29.46,5,1,12,0.00
2013-3-26,50.5,40.7,30.1,28.8,21.4,15.8,77,49,27,29.66,29.46,8,2,16,0.00
2013-3-27,53.8,41.3,30.7,34.7,25.2,19.1,86,55,30,29.77,29.63,9,3,19,0.01
2013-3-28,47.3,41.4,35.0,35.1,32.3,28.1,94,72,49,29.91,29.77,3,1,11,0.02
2013-3-29,55.6,44.5,32.4,37.0,31.2,27.0,85,61,35,29.93,29.86,7,2,14,0.00
2013-3-30,56.3,44.7,32.4,31.5,26.1,14.0,78,51,20,30.00,29.90,6,1,14,0.00
2013-3-31,55.4,42.1,25.4,38.4,26.5,16.3,83,57,27,30.03,29.72,5,2,13,0.01
2013-4-1,59.5,45.5,34.6,43.1,35.3,9.3,97,71,31,29.70,29.39,17,5,27,0.33
2013-4-2,38.6,33.7,29.1,13.6,10.0,4.5,50,37,27,29.80,29.66,18,9,31,0.00
2013-4-3,45.5,36.2,28.8,15.3,9.0,1.3,52,34,17,30.01,29.79,17,10,33,0.00
2013-4-4,55.9,42.1,29.4,21.9,13.5,6.6,52,33,17,30.17,29.91,12,5,25,0.00
2013-4-5,58.6,46.1,37.8,33.7,24.9,19.8,66,45,24,29.91,29.53,10,4,21,0.00
2013-4-6,45.7,35.6,27.6,20.8,7.8,-0.5,56,33,17,30.25,29.77,14,6,25,0.00
2013-4-7,55.9,40.5,23.3,38.0,24.7,8.6,74,55,26,30.25,29.89,8,2,24,0.00
2013-4-8,65.6,50.0,42.2,40.2,37.3,30.7,90,64,28,30.02,29.84,9,3,17,0.00
2013-4-9,64.7,51.0,42.6,49.7,41.8,35.8,94,73,45,30.01,29.78,11,2,24,0.11
2013-4-10,55.3,48.2,43.6,46.9,44.1,40.3,97,86,68,29.92,29.78,4,0,14,0.46
2013-4-11,49.2,44.0,39.6,46.6,39.0,30.0,98,83,62,30.07,29.77,3,1,6,0.17
2013-4-12,41.9,37.2,35.0,36.5,31.0,23.6,96,80,48,30.13,29.74,5,3,11,0.29
2013-4-13,53.2,40.1,33.8,38.3,35.4,32.5,96,84,54,29.83,29.69,4,1,13,0.08
2013-4-14,51.4,45.0,37.5,38.2,33.0,27.9,95,65,41,30.12,29.83,11,3,18,0.00
2013-4-15,52.0,42.0,30.1,38.6,33.3,28.0,93,73,45,30.32,30.10,5,1,12,0.00
2013-4-16,66.8,51.4,36.6,50.6,40.8,33.4,89,69,44,30.32,29.93,9,3,22,0.00
2013-4-17,65.0,57.0,43.3,51.9,34.9,26.0,78,46,24,30.24,29.93,12,5,23,0.00
2013-4-18,52.6,46.1,33.7,40.8,34.1,29.5,88,64,45,30.37,30.08,7,2,14,0.00
2013-4-19,77.2,62.3,49.1,62.6,53.9,40.0,96,75,49,30.08,29.56,10,3,25,0.00
2013-4-20,67.9,53.2,42.9,63.2,39.1,20.4,95,63,31,30.10,29.50,14,7,24,0.31
2013-4-21,52.2,40.6,30.4,29.1,22.3,16.4,86,50,27,30.61,30.09,10,3,22,0.00
2013-4-22,48.6,39.3,28.8,35.2,29.6,21.9,91,70,36,30.71,30.54,7,2,13,0.00
2013-4-23,41.3,40.0,37.9,40.4,36.7,29.9,97,88,69,30.54,30.09,4,2,12,0.08
2013-4-24,66.3,51.5,41.2,53.5,45.5,40.4,97,81,60,30.09,29.70,6,3,14,0.03
2013-4-25,64.0,55.7,44.2,51.5,35.1,23.3,91,50,24,30.19,29.71,12,5,23,0.02
2013-4-26,55.0,45.6,34.4,39.4,33.5,27.7,92,65,36,30.35,30.20,5,1,11,0.00
2013-4-27,60.1,48.3,33.7,39.9,34.8,29.1,97,65,33,30.34,30.22,5,1,11,0.00
2013-4-28,61.0,49.9,34.7,42.0,37.4,31.5,94,65,36,30.26,30.16,5,1,16,0.00
2013-4-29,64.7,52.9,39.6,47.6,39.1,32.7,83,61,35,30.19,30.12,6,1,16,0.00
2013-4-30,67.6,53.5,38.8,36.9,29.2,10.0,82,45,11,30.30,30.16,5,1,13,0.00
2013-5-1,65.2,51.4,33.7,42.6,34.7,25.9,93,59,24,30.39,30.30,5,1,15,0.00
2013-5-2,72.8,50.4,38.2,47.3,39.2,35.6,93,69,27,30.42,30.30,8,1,14,0.00
2013-5-3,55.1,47.2,38.0,42.8,39.3,35.8,94,75,58,30.46,30.30,4,1,11,0.00
2013-5-4,55.3,45.4,35.9,45.4,38.3,34.1,98,78,52,30.30,30.24,4,1,13,0.00
2013-5-5,56.9,44.9,31.6,41.9,36.9,30.6,98,76,49,30.26,30.18,4,1,11,0.00
2013-5-6,60.1,46.1,32.4,47.5,42.1,30.9,98,87,58,30.21,30.09,4,1,11,0.00
2013-5-7,72.1,57.0,38.8,56.9,49.4,38.3,99,79,47,30.09,30.02,5,1,14,0.01
2013-5-8,67.1,58.9,50.5,59.5,54.8,49.1,97,87,69,30.15,30.00,4,1,13,0.02
2013-5-9,60.5,56.2,54.1,59.9,55.3,52.8,99,97,92,30.01,29.82,2,0,5,0.53
2013-5-10,74.4,59.4,52.8,62.5,55.7,51.2,99,89,62,29.87,29.81,4,1,10,0.00
2013-5-11,70.6,61.8,52.0,62.0,57.9,51.2,98,88,70,29.82,29.61,6,1,17,0.08
2013-5-12,71.5,60.6,48.9,61.7,50.5,27.0,99,73,37,29.70,29.47,14,3,21,0.05
2013-5-13,57.6,49.1,42.5,31.8,28.5,25.2,63,46,31,29.94,29.69,12,5,24,0.00
2013-5-14,59.3,49.2,37.5,35.3,30.1,23.7,83,51,27,29.96,29.86,9,2,17,0.00
2013-5-15,65.6,51.0,34.9,50.4,38.3,26.9,91,65,27,29.96,29.58,5,1,15,0.02
2013-5-16,79.8,64.5,46.0,51.7,42.2,33.9,98,54,20,29.72,29.52,13,5,32,0.01
2013-5-17,69.1,57.1,47.7,45.2,41.9,38.0,81,58,32,30.13,29.72,6,2,16,0.00
2013-5-18,67.8,53.1,40.5,50.6,45.3,39.0,96,77,37,30.22,30.13,4,1,11,0.00
2013-5-19,60.5,53.1,50.2,50.5,49.0,47.7,96,86,68,30.28,30.16,3,0,10,0.01
2013-5-20,78.6,64.3,51.0,63.6,58.2,49.9,99,83,57,30.17,29.84,6,1,11,0.06
2013-5-21,58.3,54.2,49.5,56.4,52.2,48.5,98,93,83,29.99,29.86,3,1,10,0.03
2013-5-22,56.9,52.5,49.5,54.8,50.9,49.0,99,95,79,29.96,29.81,3,0,7,0.86
2013-5-23,75.1,60.8,51.1,67.1,57.9,50.6,99,91,75,29.87,29.73,4,1,19,0.03
2013-5-24,71.1,63.0,51.3,67.5,60.5,50.2,99,92,74,29.76,29.56,6,1,14,0.66
2013-5-25,51.4,48.4,39.1,50.6,47.2,37.0,98,96,90,29.76,29.60,8,3,18,0.68
2013-5-26,58.1,47.7,38.6,44.2,39.0,36.5,97,74,51,29.97,29.57,11,6,27,0.13
2013-5-27,69.9,55.6,39.1,42.4,37.6,32.1,93,56,26,30.09,29.96,9,3,19,0.00
2013-5-28,68.9,55.0,39.1,49.9,41.1,32.4,96,66,27,30.17,30.09,4,1,13,0.00
2013-5-29,63.1,56.8,48.5,61.2,55.9,47.2,99,97,91,30.10,29.92,1,0,5,0.28
2013-5-30,87.2,72.6,56.5,67.4,62.4,56.2,99,75,40,29.98,29.90,8,2,18,0.01
2013-5-31,94.0,80.2,65.6,67.4,64.0,56.7,93,62,30,29.99,29.82,8,2,16,0.00
2013-6-1,94.0,82.4,68.4,68.9,64.2,55.2,88,58,28,29.86,29.74,7,2,15,0.00
2013-6-2,91.4,79.3,67.8,70.0,65.9,59.9,92,66,36,29.77,29.61,8,2,20,0.01
2013-6-3,79.4,69.7,60.7,67.7,62.2,46.7,97,79,47,29.77,29.65,6,1,15,0.19
2013-6-4,68.9,60.7,51.9,47.8,44.1,41.1,73,55,39,30.01,29.73,10,4,22,0.00
2013-6-5,71.1,59.7,47.0,52.0,46.4,37.5,90,64,32,30.10,30.01,5,1,15,0.00
2013-6-6,68.4,59.4,51.6,54.7,52.1,49.6,96,78,53,30.12,30.04,2,0,10,0.00
2013-6-7,57.0,54.1,51.9,54.6,52.7,50.6,98,95,86,30.05,29.79,2,0,6,1.12
2013-6-8,75.4,62.3,52.6,63.2,56.8,52.1,98,84,61,29.90,29.55,9,2,18,0.74
2013-6-9,79.0,67.4,55.9,58.9,55.8,51.9,96,70,40,30.08,29.90,8,2,17,0.00
2013-6-10,66.8,59.9,53.3,58.8,54.9,51.9,98,84,64,30.15,29.97,2,0,7,0.13
2013-6-11,60.9,55.9,53.8,56.4,54.4,53.2,98,95,79,29.98,29.51,3,1,12,1.49
2013-6-12,67.4,60.3,55.1,58.8,55.8,52.6,98,86,66,29.73,29.48,7,2,14,0.09
2013-6-13,68.9,58.4,50.4,58.2,53.4,49.0,98,85,54,29.73,29.65,2,0,7,0.13
2013-6-14,78.3,62.4,52.8,58.5,54.2,49.2,98,78,38,29.68,29.59,2,0,6,0.45
2013-6-15,77.4,65.4,53.9,54.3,48.4,38.1,94,59,27,29.85,29.68,8,2,16,0.00
2013-6-16,76.7,65.6,51.6,58.5,53.6,48.8,91,67,39,29.85,29.63,4,1,9,0.00
2013-6-17,84.0,68.3,59.5,68.4,59.9,55.1,97,77,40,29.81,29.67,7,2,15,0.44
2013-6-18,73.2,61.6,57.0,61.6,57.6,54.7,98,88,61,29.88,29.79,2,0,13,0.04
2013-6-19,73.0,62.8,53.1,56.4,51.2,46.6,98,70,41,30.07,29.84,2,0,9,0.00
2013-6-20,74.7,62.7,46.8,58.8,51.0,45.4,96,69,38,30.18,30.06,2,0,10,0.00
2013-6-21,84.1,70.5,58.9,63.2,56.3,47.1,88,65,28,30.16,30.11,5,1,11,0.00
2013-6-22,84.9,73.0,60.1,67.1,62.4,59.0,97,72,46,30.13,30.01,5,1,14,0.00
2013-6-23,90.7,75.7,63.2,74.5,66.0,60.8,93,73,53,30.06,29.87,5,1,14,0.04
2013-6-24,92.7,77.3,68.6,71.1,67.8,63.9,96,76,39,29.92,29.76,9,2,23,0.20
2013-6-25,91.2,77.6,68.6,72.0,68.4,65.7,97,76,45,29.82,29.62,6,2,17,0.25
2013-6-26,78.6,70.2,60.2,71.2,67.7,59.6,98,92,73,29.80,29.63,2,0,7,0.58
2013-6-27,67.8,61.6,58.4,62.8,60.2,58.1,99,95,83,29.81,29.72,1,0,4,0.20
2013-6-28,80.9,65.9,55.7,74.3,63.9,55.4,99,94,73,29.73,29.41,3,0,12,0.26
2013-6-29,85.1,75.0,67.3,71.4,68.1,65.4,98,81,57,29.62,29.44,5,1,16,0.00
2013-6-30,88.0,76.8,67.3,72.4,69.0,65.9,97,78,54,29.85,29.62,5,1,11,0.00
2013-7-1,81.2,72.8,69.3,73.7,70.3,67.9,99,92,74,30.00,29.84,1,0,7,1.04
2013-7-2,75.1,65.8,58.7,74.8,65.3,58.1,99,98,95,30.15,29.99,1,0,6,0.05
2013-7-3,89.0,70.4,58.6,74.9,65.7,58.3,99,87,60,30.15,30.02,2,0,6,0.01
2013-7-4,92.9,82.7,73.0,75.2,72.3,70.2,95,73,49,30.10,29.97,5,2,13,0.00
2013-7-5,93.6,84.5,74.9,74.9,72.8,71.2,92,70,50,30.06,29.91,5,2,14,0.00
2013-7-6,87.8,81.6,75.4,72.5,70.2,66.5,87,69,51,29.97,29.88,8,3,18,0.00
2013-7-7,90.1,78.4,70.3,71.9,67.1,64.4,88,70,45,29.93,29.82,4,1,10,0.00
2013-7-8,80.1,71.8,64.2,73.1,67.1,61.0,96,86,69,30.00,29.82,2,0,5,0.02
2013-7-9,72.7,67.2,63.9,64.6,62.9,61.3,96,86,72,30.04,29.98,1,0,5,0.00
2013-7-10,78.6,68.9,63.2,73.3,67.0,62.3,98,94,76,30.02,29.71,3,0,6,0.04
2013-7-11,83.6,74.6,68.8,74.1,71.9,66.9,98,92,67,29.85,29.68,8,1,19,0.76
2013-7-12,77.6,69.7,62.6,68.5,59.6,53.8,99,73,46,30.14,29.85,2,0,7,0.00
2013-7-13,80.7,69.6,61.5,65.1,61.0,56.4,96,76,44,30.25,30.13,2,0,5,0.00
2013-7-14,88.8,75.9,66.0,72.9,69.6,64.6,99,82,56,30.22,30.11,3,0,8,0.00
2013-7-15,90.1,79.0,67.9,74.7,70.9,67.3,99,78,51,30.12,30.00,4,0,13,0.00
2013-7-16,94.9,78.4,67.4,72.3,67.6,63.8,91,71,43,30.08,30.02,1,0,6,0.00
2013-7-17,93.6,79.6,66.9,74.3,70.3,65.9,98,75,43,30.09,29.88,4,0,10,0.03
2013-7-18,87.6,76.4,71.3,72.7,70.4,67.7,98,83,57,29.93,29.86,3,0,10,0.05
2013-7-19,95.4,82.7,69.4,76.1,72.3,68.8,99,74,45,29.86,29.60,9,2,20,0.01
2013-7-20,91.0,82.2,73.2,75.7,68.5,63.7,75,64,50,29.71,29.56,8,2,25,0.00
2013-7-21,76.8,70.9,64.2,65.8,62.8,55.3,95,77,51,29.93,29.71,2,0,6,0.00
2013-7-22,79.4,70.1,65.3,68.5,66.1,63.1,98,88,67,29.97,29.83,1,0,5,0.00
2013-7-23,73.3,69.1,66.6,72.7,68.2,65.6,99,97,90,29.83,29.47,0,0,3,1.50
2013-7-24,84.0,73.6,63.2,74.5,65.9,52.9,99,79,56,29.89,29.51,7,1,15,0.02
2013-7-25,66.6,61.6,59.3,60.1,53.9,49.2,98,77,64,30.05,29.88,2,0,9,0.10
2013-7-26,73.7,65.9,60.5,65.9,62.9,59.9,98,91,73,30.01,29.84,5,1,14,0.06
2013-7-27,85.1,71.4,60.7,67.9,62.2,57.6,93,75,44,29.96,29.89,6,2,12,0.00
2013-7-28,72.7,67.2,63.9,67.4,64.8,61.8,98,92,82,29.96,29.92,0,0,4,0.01
2013-7-29,76.1,68.6,63.9,68.4,66.0,63.3,99,92,76,29.97,29.88,2,0,7,0.01
2013-7-30,80.9,70.4,60.4,66.7,60.3,53.0,99,74,40,30.01,29.94,7,1,14,0.00
2013-7-31,79.6,68.0,56.2,62.0,58.6,53.6,98,75,43,30.05,29.96,2,0,10,0.00
2013-8-1,79.6,68.6,58.1,66.4,62.2,57.0,99,81,57,29.97,29.80,5,1,15,0.01
2013-8-2,82.0,70.9,64.0,68.6,62.5,56.3,99,78,43,29.81,29.68,5,1,13,0.39
2013-8-3,79.9,70.4,60.7,63.4,59.1,55.5,94,69,46,29.77,29.67,8,2,17,0.00
2013-8-4,78.1,67.6,59.3,62.7,56.0,52.2,85,68,43,29.79,29.68,7,2,14,0.00
2013-8-5,75.8,63.8,53.1,53.5,48.2,41.2,89,60,30,29.96,29.79,9,3,23,0.00
2013-8-6,75.8,62.3,45.8,55.4,49.4,44.1,96,67,35,30.08,29.96,2,0,8,0.00
2013-8-7,77.4,65.0,51.0,62.0,56.0,50.2,98,75,42,30.11,30.03,3,0,11,0.00
2013-8-8,84.0,72.6,61.8,70.5,64.7,53.5,96,77,62,30.05,29.91,5,1,13,0.06
2013-8-9,73.9,71.9,68.3,72.5,70.1,67.7,99,94,85,29.94,29.64,5,1,13,1.60
2013-8-10,81.1,72.3,58.0,70.6,61.2,50.9,99,72,36,29.94,29.69,10,3,23,0.01
2013-8-11,79.0,65.7,52.2,60.2,54.2,51.0,97,70,38,29.99,29.91,7,1,14,0.00
2013-8-12,81.2,68.0,55.9,61.5,57.0,52.8,98,71,41,29.94,29.83,5,1,13,0.00
2013-8-13,73.5,67.1,61.6,66.7,63.6,59.1,98,89,75,29.84,29.61,1,0,4,0.00
2013-8-14,74.0,66.1,59.6,64.0,55.3,50.1,99,71,45,29.85,29.58,11,4,22,0.01
2013-8-15,76.0,64.0,52.0,55.9,51.6,48.5,90,67,41,30.02,29.85,7,2,14,0.00
2013-8-16,79.4,65.0,52.3,58.9,54.4,50.5,95,72,42,30.11,30.01,6,1,15,0.00
2013-8-17,76.8,64.7,54.1,61.2,55.9,52.6,98,76,48,30.21,30.10,2,0,9,0.00
2013-8-18,80.7,66.9,53.9,66.1,59.7,53.1,98,79,56,30.20,30.00,2,0,11,0.00
2013-8-19,81.2,70.5,59.3,63.9,60.9,57.6,95,73,51,30.00,29.85,6,1,12,0.00
2013-8-20,86.1,72.7,62.1,67.8,62.7,59.7,93,73,43,30.00,29.89,4,0,9,0.00
2013-8-21,89.3,73.8,60.4,68.3,64.2,59.5,98,75,44,30.06,29.93,4,0,10,0.00
2013-8-22,89.3,76.0,64.3,70.5,65.8,61.9,92,72,45,29.94,29.73,6,1,13,0.00
2013-8-23,81.8,70.8,61.0,68.4,59.5,50.0,87,69,37,30.05,29.73,4,1,12,0.00
2013-8-24,76.5,62.6,49.9,53.0,48.1,43.2,93,63,34,30.25,30.05,2,0,6,0.00
2013-8-25,77.7,64.4,49.5,57.8,52.0,47.9,96,68,38,30.29,30.08,2,0,7,0.00
2013-8-26,80.7,71.5,63.1,67.0,62.1,54.7,89,73,60,30.08,29.77,8,2,15,0.01
2013-8-27,82.4,72.7,62.9,67.6,65.3,61.4,96,79,55,29.82,29.75,1,0,7,0.00
2013-8-28,79.6,67.6,59.0,69.2,63.3,58.4,99,87,60,29.92,29.79,2,0,9,0.00
2013-8-29,65.6,64.3,61.6,65.0,60.8,57.6,98,89,77,30.02,29.89,1,0,11,0.02
2013-8-30,83.8,70.6,61.3,67.8,62.8,58.5,94,78,55,29.96,29.72,5,1,11,0.00
2013-8-31,81.2,74.1,68.1,72.7,69.3,65.4,95,85,74,29.76,29.69,4,0,8,0.02
2013-9-1,87.8,74.9,69.6,72.1,70.2,66.9,98,86,56,29.80,29.70,3,1,10,0.02
2013-9-2,71.6,70.0,68.6,71.3,69.6,68.2,99,99,97,29.80,29.65,1,0,8,1.42
2013-9-3,80.5,71.5,63.5,70.5,14.8,-99.9,99,56,67,29.71,29.62,7,1,13,0.01
2013-9-4,80.1,68.6,59.2,60.3,57.0,54.1,91,69,42,29.82,29.70,8,3,17,0.00
2013-9-5,68.8,60.7,47.1,60.4,54.0,44.6,92,79,61,30.07,29.77,2,0,9,0.00
2013-9-6,69.4,54.8,40.6,49.6,43.4,38.3,98,70,36,30.17,30.00,5,1,14,0.00
2013-9-7,77.9,62.5,47.0,58.8,50.7,44.8,93,68,37,30.00,29.76,5,1,11,0.00
2013-9-8,70.6,63.0,46.8,58.8,50.0,40.8,86,64,41,30.01,29.65,10,2,21,0.00
2013-9-9,70.3,55.4,39.8,50.0,43.9,38.5,97,69,38,30.16,30.01,5,1,12,0.00
2013-9-10,73.3,65.1,54.5,69.4,61.0,48.6,95,87,73,30.07,29.95,4,0,9,0.05
2013-9-11,94.5,80.4,68.9,74.9,71.0,67.9,99,76,47,29.97,29.83,9,1,18,0.08
2013-9-12,86.1,71.9,66.3,74.1,69.0,65.2,98,91,65,29.88,29.60,6,0,12,0.97
2013-9-13,75.3,65.8,56.9,68.8,26.5,-99.9,99,73,73,29.67,29.50,2,0,10,0.95
2013-9-14,67.1,59.0,50.2,56.3,53.7,48.5,95,83,64,29.96,29.67,7,1,15,0.01
2013-9-15,70.6,57.8,48.0,53.7,49.4,44.7,96,76,43,30.07,29.96,5,1,12,0.01
2013-9-16,66.8,56.9,46.5,55.8,49.9,36.1,92,78,57,30.19,29.91,4,1,14,0.01
2013-9-17,65.2,50.6,36.9,48.6,40.0,34.9,95,70,38,30.35,30.18,2,0,15,0.00
2013-9-18,72.5,56.6,42.2,53.1,45.8,40.9,97,71,35,30.24,30.05,4,1,10,0.00
2013-9-19,77.0,59.4,46.8,53.9,49.7,45.2,96,74,35,30.06,29.96,1,0,5,0.00
2013-9-20,73.3,59.2,46.8,57.7,53.2,46.3,99,83,50,30.02,29.94,1,0,6,0.00
2013-9-21,75.8,61.5,47.7,62.6,57.2,47.2,99,87,60,29.95,29.67,3,0,15,0.01
2013-9-22,70.6,63.5,52.0,65.7,56.4,42.9,96,79,50,29.73,29.52,8,3,17,0.41
2013-9-23,62.3,51.8,42.5,44.7,41.1,38.7,88,68,49,29.91,29.73,8,3,18,0.00
2013-9-24,64.5,50.4,39.3,47.9,42.2,37.4,94,76,45,29.90,29.74,7,1,16,0.00
2013-9-25,63.2,52.2,40.6,51.2,46.4,39.5,98,82,55,29.91,29.79,1,0,9,0.00
2013-9-26,64.5,55.9,47.0,51.4,48.6,44.8,93,77,57,30.06,29.91,1,0,7,0.00
2013-9-27,69.9,58.5,49.5,53.6,50.7,47.9,96,77,51,30.18,30.05,2,0,7,0.00
2013-9-28,71.6,56.2,46.4,56.2,50.8,45.9,99,84,52,30.26,30.18,1,0,6,0.00
2013-9-29,65.6,52.3,43.2,56.2,47.4,42.1,99,86,47,30.21,30.06,1,0,7,0.01
2013-9-30,64.2,51.3,42.5,55.8,47.4,41.4,99,88,54,30.06,29.90,2,0,6,0.01
2013-10-1,77.2,57.5,42.5,57.8,50.4,42.0,99,81,41,29.90,29.76,2,0,6,0.00
2013-10-2,79.4,65.2,54.2,62.0,56.8,51.9,97,77,49,29.85,29.72,9,2,17,0.01
2013-10-3,76.1,63.2,53.9,57.9,52.6,45.1,94,72,34,29.99,29.85,4,1,10,0.00
2013-10-4,68.6,58.3,48.8,57.0,53.7,47.7,98,86,59,30.01,29.96,1,0,4,0.00
2013-10-5,64.8,59.4,56.7,57.0,54.2,50.9,97,84,66,30.06,29.98,0,0,4,0.00
2013-10-6,57.3,55.0,52.8,56.0,52.2,44.8,99,91,69,30.19,30.05,1,0,5,0.19
2013-10-7,73.0,29.6,56.2,67.5,-30.4,-99.9,99,41,80,30.09,29.73,3,-511,15,0.06
2013-10-8,65.6,12.9,57.8,44.3,-71.2,-99.9,57,9,39,30.31,29.80,6,-753,15,0.00
2013-10-9,60.7,12.3,53.2,46.9,-69.3,-99.9,79,13,53,30.41,30.30,1,-769,5,0.00
2013-10-10,-200.0,0.0,200.0,-99.9,-99.9,-99.9,0,0,100,30.30,30.12,0,-952,0,0.00
2013-10-11,68.8,12.7,61.6,52.9,-70.5,-99.9,71,12,46,30.12,30.04,2,-785,3,0.00
2013-10-12,-200.0,0.0,200.0,-99.9,-99.9,-99.9,0,0,100,30.33,30.08,0,-980,0,0.00
2013-10-13,61.2,21.2,38.3,46.8,-39.8,-99.9,95,33,54,30.39,30.32,1,-555,3,0.00
2013-10-14,65.3,48.4,32.5,49.8,42.2,31.7,99,82,44,30.34,30.16,3,0,9,0.00
2013-10-15,62.0,55.9,52.2,54.1,51.7,49.7,97,86,68,30.19,30.11,1,0,3,0.00
2013-10-16,61.8,55.6,49.5,55.3,52.8,49.0,99,91,69,30.11,29.83,1,0,4,0.00
2013-10-17,74.2,60.5,52.8,57.1,53.3,48.2,99,80,44,29.84,29.62,8,1,14,0.00
2013-10-18,67.9,60.2,50.1,61.2,49.9,36.3,99,71,47,29.81,29.51,11,4,22,0.08
2013-10-19,67.3,54.1,39.5,48.8,41.9,36.3,90,65,39,29.88,29.67,4,1,12,0.00
2013-10-20,62.0,54.2,46.8,48.9,39.6,32.5,92,60,36,29.92,29.60,12,4,22,0.00
2013-10-21,67.1,50.8,35.5,49.2,39.9,32.9,92,68,39,30.01,29.90,7,1,11,0.00
2013-10-22,63.2,53.4,44.9,52.5,45.9,36.9,92,76,58,29.91,29.61,6,1,13,0.00
2013-10-23,52.2,44.7,33.2,36.9,34.5,30.9,93,69,47,29.70,29.49,4,0,7,0.00
2013-10-24,52.9,45.3,39.2,35.1,30.1,24.2,81,57,36,29.77,29.52,11,4,22,0.00
2013-10-25,49.6,40.2,30.7,33.3,28.7,24.5,86,65,41,30.04,29.77,11,2,18,0.00
2013-10-26,55.0,42.1,26.4,33.9,28.0,21.4,93,61,29,30.04,29.78,9,1,19,0.00
2013-10-27,55.4,46.7,37.5,40.1,34.0,26.3,89,63,40,29.95,29.71,10,3,19,0.04
2013-10-28,57.6,43.3,32.8,36.0,30.0,23.3,79,61,40,30.26,29.95,12,3,22,0.00
2013-10-29,49.6,34.3,24.2,27.8,24.0,16.9,89,69,28,30.37,30.26,3,0,7,0.00
2013-10-30,49.2,36.3,27.9,36.1,30.8,25.1,94,81,59,30.28,30.12,7,1,13,0.01
2013-10-31,60.4,44.8,29.1,58.7,43.0,27.8,98,94,83,30.15,29.70,3,0,11,0.08
2013-11-1,71.6,65.3,58.3,60.7,56.2,51.6,95,73,56,29.70,29.30,18,5,31,0.02
2013-11-2,66.3,54.8,44.3,52.2,44.5,39.2,90,71,38,29.63,29.50,6,1,14,0.00
2013-11-3,50.4,41.3,30.7,46.1,30.9,17.8,94,68,40,30.34,29.63,6,1,12,0.09
2013-11-4,43.6,32.5,24.5,22.1,17.8,13.3,81,57,30,30.63,30.34,3,0,12,0.00
2013-11-5,49.4,36.2,23.6,34.2,26.8,18.3,83,70,46,30.64,30.43,2,0,8,0.00
2013-11-6,61.3,50.0,38.3,47.6,39.6,32.5,80,68,46,30.43,29.93,5,1,13,0.00
2013-11-7,64.0,53.7,39.6,56.5,48.0,31.8,93,81,68,29.93,29.58,8,2,22,0.10
2013-11-8,46.8,38.8,33.2,33.9,26.7,22.8,81,62,46,29.97,29.71,10,4,23,0.00
2013-11-9,43.2,38.6,33.1,27.0,22.3,19.5,62,52,40,30.10,29.96,11,4,23,0.00
2013-11-10,49.5,43.7,38.5,43.2,36.7,26.9,96,77,59,29.96,29.64,10,2,20,0.08
2013-11-11,50.4,44.3,38.9,33.0,27.1,23.2,69,51,35,29.99,29.71,14,5,24,0.00
2013-11-12,47.9,35.0,27.3,36.0,20.8,13.7,86,56,50,30.08,29.78,10,4,25,0.02
2013-11-13,35.0,28.7,23.3,14.2,11.9,8.9,64,50,35,30.18,30.04,10,4,21,0.00
2013-11-14,50.8,38.6,28.1,27.8,21.4,13.5,60,50,38,30.03,29.92,11,3,22,0.00
2013-11-15,57.8,42.0,28.4,31.3,21.8,16.4,70,48,22,30.09,30.00,6,0,14,0.00
2013-11-16,58.9,41.3,30.4,35.8,28.3,20.8,93,63,26,30.24,30.08,2,0,5,0.00
2013-11-17,52.2,42.9,30.7,51.9,42.0,28.7,99,96,90,30.25,29.79,1,0,6,0.10
2013-11-18,64.3,56.3,48.3,61.2,47.5,31.0,99,75,41,29.79,29.41,11,3,20,0.20
2013-11-19,48.2,38.3,30.9,31.2,20.6,14.7,62,49,37,30.17,29.53,13,7,27,0.00
2013-11-20,41.5,32.2,23.9,16.0,13.2,9.6,64,46,27,30.54,30.17,6,2,17,0.00
2013-11-21,46.1,31.8,18.6,25.2,16.2,7.9,82,56,22,30.56,30.27,7,1,13,0.00
2013-11-22,42.8,39.4,36.2,40.9,35.8,24.3,98,87,61,30.26,29.71,1,0,4,0.09
2013-11-23,44.1,37.8,29.8,43.8,25.6,12.0,99,64,34,29.80,29.66,14,7,31,0.01
2013-11-24,29.7,23.1,18.9,19.2,2.8,-6.4,75,43,27,30.04,29.66,18,12,40,0.00
2013-11-25,30.3,23.4,17.2,11.5,-4.0,-12.4,47,30,16,30.24,30.05,14,6,28,0.00
2013-11-26,35.5,32.5,28.1,32.5,22.7,11.4,95,68,44,30.23,30.00,5,1,13,0.12
2013-11-27,60.7,49.9,33.8,60.4,49.5,32.5,99,98,95,29.98,29.16,9,4,29,1.27
2013-11-28,36.9,30.4,21.9,29.1,13.8,3.7,74,51,33,30.33,29.32,15,8,32,0.00
2013-11-29,30.3,23.0,15.2,10.0,5.9,0.2,68,49,28,30.66,30.33,8,2,21,0.00
2013-11-30,31.9,22.2,10.2,21.0,13.5,6.1,84,70,54,30.71,30.34,1,0,9,0.00
2013-12-1,37.5,34.0,30.9,35.9,30.7,22.0,98,88,68,30.32,29.93,1,0,11,0.17
2013-12-2,39.3,36.7,35.0,37.8,35.7,34.2,98,96,91,29.92,29.83,5,1,16,0.01
2013-12-3,46.7,37.5,31.3,38.6,34.1,27.8,97,88,65,29.84,29.75,3,1,10,0.00
2013-12-4,40.3,33.9,27.8,29.3,26.0,22.9,88,73,58,30.11,29.83,8,2,18,0.00
2013-12-5,46.5,37.0,26.6,45.4,34.9,23.9,98,92,84,30.14,29.82,1,0,5,0.03
2013-12-6,47.7,43.1,33.2,47.4,40.1,30.9,99,90,66,30.06,29.76,8,2,19,0.08
2013-12-7,37.5,32.0,23.0,32.1,24.2,14.6,96,75,48,30.35,29.99,12,2,22,0.11
2013-12-8,29.1,25.7,20.2,19.2,15.1,10.8,77,64,46,30.50,30.35,6,1,14,0.00
2013-12-9,39.6,32.4,26.3,39.1,28.8,13.2,98,87,55,30.42,29.78,5,1,15,0.24
2013-12-10,34.3,30.8,24.2,32.3,27.1,11.9,98,86,59,29.86,29.68,10,3,20,0.01
2013-12-11,31.8,25.5,18.3,17.5,13.8,11.1,83,62,43,30.08,29.87,12,5,22,0.00
2013-12-12,23.6,18.0,10.4,17.1,4.6,-5.8,79,57,29,30.16,29.94,10,2,20,0.00
2013-12-13,26.4,18.5,10.4,18.2,7.0,-5.0,78,60,45,30.31,29.87,12,4,23,0.00
2013-12-14,20.0,12.4,6.3,17.2,2.0,-7.9,90,64,35,30.53,30.16,3,0,11,0.00
2013-12-15,32.2,22.8,15.2,31.7,20.8,11.8,98,92,86,30.13,29.33,7,2,22,0.00
2013-12-16,26.0,20.5,9.9,18.5,10.8,0.1,90,68,35,30.10,29.61,16,4,33,0.00
2013-12-17,17.8,10.3,-2.6,12.7,3.1,-9.1,87,73,53,30.19,29.88,6,1,14,0.00
2013-12-18,32.7,24.5,13.6,22.1,17.5,9.9,88,75,53,29.94,29.77,10,3,22,0.05
2013-12-19,40.6,31.8,25.3,24.1,21.4,18.5,75,66,47,30.00,29.84,9,2,19,0.05
2013-12-20,46.1,37.4,30.7,36.3,30.3,23.7,94,76,58,30.02,29.80,4,0,14,0.08
2013-12-21,56.7,45.8,33.4,45.5,38.9,30.6,92,78,58,29.84,29.73,3,0,12,0.00
2013-12-22,46.8,34.5,30.0,44.0,33.5,29.3,97,96,89,29.95,29.75,4,0,14,0.18
2013-12-23,34.7,31.6,29.3,34.2,31.0,28.6,98,98,97,30.02,29.89,2,0,6,0.41
2013-12-24,34.1,30.3,24.1,33.6,20.9,9.2,98,69,49,30.09,29.95,10,2,20,0.00
2013-12-25,23.8,16.3,9.2,12.2,3.0,-4.6,74,56,40,30.45,30.09,14,2,28,0.00
2013-12-26,29.3,21.3,13.6,26.5,17.2,7.5,92,84,73,30.42,29.98,4,0,9,0.00
2013-12-27,33.1,25.5,18.8,21.3,18.2,15.3,89,74,54,30.15,30.07,10,2,19,0.01
2013-12-28,45.1,33.6,23.2,29.6,23.8,17.9,81,68,48,30.10,29.86,8,2,18,0.05
2013-12-29,40.3,34.4,28.4,37.6,30.0,24.3,97,84,67,29.92,29.36,6,1,17,0.82
2013-12-30,41.2,31.0,13.3,34.8,22.8,-2.9,96,73,44,30.09,29.40,12,4,22,0.01
2013-12-31,20.8,13.4,7.0,10.3,0.1,-4.7,75,56,32,30.08,29.94,4,1,11,0.00
2014-1-1,24.7,18.7,14.8,9.4,5.3,2.0,76,56,40,30.29,30.05,13,4,23,0.00
2014-1-2,17.5,6.9,-2.0,11.2,1.4,-7.7,84,78,64,30.28,29.82,6,2,23,0.00